Location: Unspecified
(0.0000°N, 0.0000°E)
Time: 23:21:33
(UTC+00:00)

Vanguard 2 - Pass Details

Date: 02 October 2020
Orbit: 554 x 2937 km, 32.9° (Epoch: 28 October)

Event Time Altitude Azimuth Distance (km) Brightness Sun altitude
Rises 14:16:25 0° 264° (W) 3,447 11.5 53.0°
Reaches altitude 10° 14:19:17 10° 247° (WSW) 2,792 11.2 52.3°
Maximum altitude 14:24:20 21° 199° (SSW) 2,576 10.7 51.0°
Drops below altitude 10° 14:31:22 10° 155° (SSE) 4,040 11.2 49.3°
Sets 14:36:45 0° 141° (SE) 5,536 11.7 48.0°
